Wetterdaten: aktuell Samstag, 04.02.2023 16:30
Datum Zeit Temp. I. Temp. A. Feuchte A. Luftdruck Regen Wind Richtung Richtung Sonnenschein Taupunkt Windchill Windben
04.02.2023 16:30 23,1 C 0,9 C 55 % 1033,6 hPa 0,0 l/m 8,0 km/h (2 Bft) W 270 0 min -7,1 C -0,7 C 10,5 km/h (2 Bft)
04.02.2023 16:20 23,1 C 1,0 C 55 % 1033,6 hPa 0,0 l/m 7,4 km/h (2 Bft) W 270 0 min -7,0 C -0,0 C 6,8 km/h (2 Bft)
04.02.2023 16:10 23,1 C 0,7 C 56 % 1033,6 hPa 0,0 l/m 6,8 km/h (2 Bft) W-NW 292 0 min -7,1 C 0,3 C 6,4 km/h (2 Bft)
04.02.2023 16:00 23,1 C 0,8 C 56 % 1033,6 hPa 0,0 l/m 7,1 km/h (2 Bft) W 270 0 min -7,0 C 0,1 C 8,5 km/h (2 Bft)
04.02.2023 15:50 23,0 C 1,1 C 55 % 1033,2 hPa 0,0 l/m 7,6 km/h (2 Bft) W-NW 292 0 min -6,9 C -0,1 C 13,0 km/h (3 Bft)
04.02.2023 15:40 23,0 C 1,4 C 55 % 1033,2 hPa 0,0 l/m 7,7 km/h (2 Bft) W 270 0 min -6,6 C 0,1 C 8,4 km/h (2 Bft)
04.02.2023 15:30 23,0 C 1,9 C 53 % 1033,2 hPa 0,0 l/m 8,0 km/h (2 Bft) W-NW 292 0 min -6,6 C 0,3 C 8,4 km/h (2 Bft)
04.02.2023 15:20 23,0 C 2,2 C 54 % 1033,2 hPa 0,0 l/m 7,9 km/h (2 Bft) W 270 0 min -6,1 C 0,8 C 13,2 km/h (3 Bft)
04.02.2023 15:10 22,9 C 2,4 C 56 % 1033,0 hPa 0,0 l/m 6,3 km/h (2 Bft) W-NW 292 10 min -5,5 C 2,4 C 9,2 km/h (2 Bft)
04.02.2023 15:00 23,0 C 1,8 C 57 % 1033,0 hPa 0,0 l/m 7,1 km/h (2 Bft) W 270 0 min -5,8 C 1,1 C 13,2 km/h (3 Bft)
04.02.2023 14:50 22,8 C 1,6 C 57 % 1033,0 hPa 0,0 l/m 8,0 km/h (2 Bft) NW 315 0 min -6,0 C 0,0 C 5,3 km/h (1 Bft)
04.02.2023 14:40 22,6 C 1,8 C 57 % 1033,0 hPa 0,0 l/m 7,7 km/h (2 Bft) W-SW 247 0 min -5,8 C 0,5 C 9,5 km/h (2 Bft)
04.02.2023 14:30 22,5 C 1,6 C 57 % 1032,9 hPa 0,0 l/m 8,5 km/h (2 Bft) NW 315 0 min -6,0 C -0,4 C 13,5 km/h (3 Bft)
04.02.2023 14:20 22,5 C 1,8 C 57 % 1032,9 hPa 0,0 l/m 6,6 km/h (2 Bft) W-SW 247 0 min -5,8 C 1,6 C 7,7 km/h (2 Bft)
04.02.2023 14:10 22,5 C 2,1 C 58 % 1032,6 hPa 0,0 l/m 5,8 km/h (2 Bft) W 270 0 min -5,3 C 2,1 C 11,4 km/h (2 Bft)
04.02.2023 14:00 22,6 C 2,1 C 59 % 1032,6 hPa 0,0 l/m 5,8 km/h (2 Bft) N-NW 337 0 min -5,1 C 2,1 C 6,6 km/h (2 Bft)
04.02.2023 13:50 22,4 C 2,0 C 58 % 1032,6 hPa 0,0 l/m 5,5 km/h (1 Bft) W-NW 292 0 min -5,4 C 2,0 C 13,0 km/h (3 Bft)
04.02.2023 13:40 22,5 C 1,9 C 58 % 1032,6 hPa 0,0 l/m 7,1 km/h (2 Bft) W 270 0 min -5,5 C 1,2 C 12,4 km/h (3 Bft)
04.02.2023 13:30 22,5 C 2,0 C 59 % 1032,6 hPa 0,0 l/m 6,6 km/h (2 Bft) W 270 0 min -5,2 C 1,8 C 7,4 km/h (2 Bft)
04.02.2023 13:20 22,4 C 2,4 C 67 % 1032,6 hPa 0,0 l/m 6,6 km/h (2 Bft) W 270 0 min -3,1 C 2,2 C 8,7 km/h (2 Bft)
04.02.2023 13:10 22,4 C 2,4 C 73 % 1032,4 hPa 0,0 l/m 7,6 km/h (2 Bft) W 270 0 min -1,9 C 1,2 C 9,5 km/h (2 Bft)
04.02.2023 13:00 22,4 C 2,3 C 73 % 1032,4 hPa 0,0 l/m 6,9 km/h (2 Bft) W 270 0 min -2,0 C 1,8 C 5,0 km/h (1 Bft)
04.02.2023 12:50 22,5 C 2,3 C 74 % 1032,3 hPa 0,0 l/m 7,1 km/h (2 Bft) W 270 0 min -1,8 C 1,6 C 7,1 km/h (2 Bft)
04.02.2023 12:40 22,7 C 2,2 C 76 % 1032,3 hPa 0,0 l/m 7,1 km/h (2 Bft) N-NW 337 0 min -1,6 C 1,5 C 10,8 km/h (2 Bft)
04.02.2023 12:30 22,7 C 2,2 C 77 % 1032,3 hPa 0,0 l/m 5,5 km/h (1 Bft) W 270 0 min -1,4 C 2,2 C 5,3 km/h (1 Bft)
04.02.2023 12:20 22,8 C 2,1 C 78 % 1032,3 hPa 0,0 l/m 6,1 km/h (2 Bft) W 270 0 min -1,3 C 2,1 C 5,6 km/h (1 Bft)
04.02.2023 12:10 22,7 C 2,2 C 79 % 1032,1 hPa 0,0 l/m 5,3 km/h (1 Bft) W 270 0 min -1,1 C 2,2 C 6,8 km/h (2 Bft)
04.02.2023 12:00 22,7 C 1,8 C 79 % 1032,1 hPa 0,0 l/m 5,3 km/h (1 Bft) W-NW 292 0 min -1,4 C 1,8 C 4,5 km/h (1 Bft)
04.02.2023 11:50 22,7 C 1,8 C 80 % 1031,8 hPa 0,0 l/m 5,6 km/h (1 Bft) NW 315 0 min -1,3 C 1,8 C 2,7 km/h (1 Bft)
04.02.2023 11:40 22,7 C 1,8 C 81 % 1031,8 hPa 0,0 l/m 5,8 km/h (2 Bft) SW 225 0 min -1,1 C 1,8 C 11,3 km/h (2 Bft)
04.02.2023 11:30 22,6 C 1,6 C 82 % 1031,8 hPa 0,0 l/m 4,8 km/h (1 Bft) W-NW 292 0 min -1,1 C 1,6 C 6,4 km/h (2 Bft)
04.02.2023 11:20 22,6 C 1,5 C 83 % 1031,8 hPa 0,0 l/m 6,4 km/h (2 Bft) W-NW 292 0 min -1,1 C 1,5 C 10,1 km/h (2 Bft)
04.02.2023 11:10 22,6 C 1,4 C 84 % 1031,5 hPa 0,0 l/m 5,8 km/h (2 Bft) NW 315 0 min -1,0 C 1,4 C 13,8 km/h (3 Bft)
04.02.2023 11:00 22,6 C 1,3 C 85 % 1031,5 hPa 0,0 l/m 4,7 km/h (1 Bft) W-NW 292 0 min -0,9 C 1,3 C 10,6 km/h (2 Bft)
04.02.2023 10:50 22,6 C 1,0 C 85 % 1030,9 hPa 0,0 l/m 3,7 km/h (1 Bft) W 270 0 min -1,2 C 1,0 C 2,4 km/h (1 Bft)
04.02.2023 10:40 22,5 C 1,0 C 86 % 1030,9 hPa 0,0 l/m 3,9 km/h (1 Bft) W-NW 292 0 min -1,1 C 1,0 C 2,1 km/h (1 Bft)
04.02.2023 10:30 22,4 C 0,9 C 87 % 1030,6 hPa 0,0 l/m 5,8 km/h (2 Bft) W-NW 292 0 min -1,0 C 0,9 C 4,7 km/h (1 Bft)
04.02.2023 10:20 22,2 C 0,7 C 87 % 1030,6 hPa 0,0 l/m 5,1 km/h (1 Bft) NW 315 0 min -1,2 C 0,7 C 5,0 km/h (1 Bft)
04.02.2023 10:10 22,0 C 0,3 C 87 % 1030,0 hPa 0,0 l/m 6,6 km/h (2 Bft) NW 315 0 min -1,6 C 0,1 C 5,6 km/h (1 Bft)
04.02.2023 10:00 21,8 C 0,3 C 87 % 1030,0 hPa 0,0 l/m 5,5 km/h (1 Bft) W 270 10 min -1,6 C 0,3 C 8,9 km/h (2 Bft)
04.02.2023 09:50 21,6 C 0,3 C 87 % 1029,4 hPa 0,0 l/m 5,1 km/h (1 Bft) W-SW 247 10 min -1,6 C 0,3 C 6,4 km/h (2 Bft)
04.02.2023 09:40 21,4 C 0,2 C 88 % 1029,4 hPa 0,0 l/m 5,3 km/h (1 Bft) W 270 0 min -1,5 C 0,2 C 12,1 km/h (2 Bft)
04.02.2023 09:30 21,2 C 0,1 C 88 % 1029,8 hPa 0,0 l/m 3,7 km/h (1 Bft) W 270 0 min -1,6 C 0,1 C 7,9 km/h (2 Bft)
04.02.2023 09:20 21,2 C -0,3 C 88 % 1029,8 hPa 0,0 l/m 3,9 km/h (1 Bft) W 270 0 min -2,0 C -0,3 C 2,6 km/h (1 Bft)
04.02.2023 09:10 22,1 C -0,3 C 88 % 1029,6 hPa 0,0 l/m 4,3 km/h (1 Bft) W 270 0 min -2,0 C -0,3 C 6,1 km/h (2 Bft)
04.02.2023 09:00 22,0 C -0,5 C 88 % 1029,6 hPa 0,0 l/m 3,7 km/h (1 Bft) W 270 0 min -2,2 C -0,5 C 7,7 km/h (2 Bft)
04.02.2023 08:50 22,0 C -0,7 C 88 % 1028,9 hPa 0,0 l/m 5,0 km/h (1 Bft) W 270 0 min -2,4 C -0,7 C 2,9 km/h (1 Bft)
04.02.2023 08:40 21,9 C -1,2 C 87 % 1028,9 hPa 0,0 l/m 5,1 km/h (1 Bft) W-NW 292 0 min -3,1 C -1,2 C 6,8 km/h (2 Bft)
04.02.2023 08:30 21,8 C -1,3 C 87 % 1028,6 hPa 0,0 l/m 4,7 km/h (1 Bft) NW 315 0 min -3,2 C -1,3 C 7,6 km/h (2 Bft)
04.02.2023 08:20 21,8 C -1,3 C 87 % 1028,6 hPa 0,0 l/m 4,3 km/h (1 Bft) W-NW 292 0 min -3,2 C -1,3 C 5,0 km/h (1 Bft)
04.02.2023 08:10 21,7 C -1,1 C 87 % 1028,1 hPa 0,0 l/m 4,5 km/h (1 Bft) W 270 0 min -3,0 C -1,1 C 6,8 km/h (2 Bft)
04.02.2023 08:00 21,7 C -0,7 C 88 % 1028,1 hPa 0,0 l/m 4,2 km/h (1 Bft) NW 315 0 min -2,4 C -0,7 C 2,3 km/h (1 Bft)
04.02.2023 07:50 21,6 C -0,5 C 88 % 1027,5 hPa 0,0 l/m 6,8 km/h (2 Bft) W 270 0 min -2,2 C -0,9 C 13,7 km/h (3 Bft)
04.02.2023 07:40 21,6 C -0,5 C 88 % 1027,5 hPa 0,0 l/m 5,5 km/h (1 Bft) NW 315 0 min -2,2 C -0,5 C 2,6 km/h (1 Bft)
04.02.2023 07:30 21,6 C -0,2 C 88 % 1027,0 hPa 0,0 l/m 6,3 km/h (2 Bft) W 270 0 min -1,9 C -0,2 C 12,7 km/h (3 Bft)
04.02.2023 07:20 21,5 C 0,0 C 88 % 1027,0 hPa 0,0 l/m 4,3 km/h (1 Bft) W 270 0 min -1,7 C 0,0 C 3,9 km/h (1 Bft)
04.02.2023 07:10 21,4 C 0,0 C 88 % 1026,2 hPa 0,0 l/m 4,3 km/h (1 Bft) W-NW 292 0 min -1,7 C 0,0 C 8,0 km/h (2 Bft)
04.02.2023 07:00 21,4 C 0,0 C 88 % 1026,2 hPa 0,0 l/m 3,5 km/h (1 Bft) W-NW 292 0 min -1,7 C 0,0 C 5,1 km/h (1 Bft)
04.02.2023 06:50 21,4 C -0,3 C 88 % 1026,2 hPa 0,0 l/m 5,0 km/h (1 Bft) W-SW 247 0 min -2,0 C -0,3 C 4,8 km/h (1 Bft)
04.02.2023 06:40 21,4 C -0,2 C 88 % 1026,2 hPa 0,0 l/m 5,5 km/h (1 Bft) W-SW 247 0 min -1,9 C -0,2 C 4,3 km/h (1 Bft)
04.02.2023 06:30 21,4 C 0,0 C 88 % 1025,1 hPa 0,0 l/m 4,0 km/h (1 Bft) N-NW 337 0 min -1,7 C 0,0 C 4,3 km/h (1 Bft)
04.02.2023 06:20 21,4 C 0,2 C 88 % 1025,1 hPa 0,0 l/m 4,3 km/h (1 Bft) W-NW 292 0 min -1,5 C 0,2 C 2,4 km/h (1 Bft)
04.02.2023 06:10 21,4 C 0,2 C 88 % 1024,3 hPa 0,0 l/m 3,9 km/h (1 Bft) N-NW 337 0 min -1,5 C 0,2 C 5,8 km/h (2 Bft)
04.02.2023 06:00 21,2 C 0,5 C 88 % 1024,3 hPa 0,0 l/m 2,9 km/h (1 Bft) W-NW 292 0 min -1,3 C 0,5 C 2,6 km/h (1 Bft)
04.02.2023 05:50 21,3 C 0,5 C 88 % 1023,8 hPa 0,0 l/m 2,9 km/h (1 Bft) N-NW 337 0 min -1,3 C 0,5 C 6,6 km/h (2 Bft)
04.02.2023 05:40 21,3 C 0,5 C 88 % 1023,8 hPa 0,0 l/m 2,1 km/h (1 Bft) SW 225 0 min -1,3 C 0,5 C 3,5 km/h (1 Bft)
04.02.2023 05:30 21,2 C 0,5 C 88 % 1023,2 hPa 0,0 l/m 3,1 km/h (1 Bft) W 270 0 min -1,3 C 0,5 C 7,2 km/h (2 Bft)
04.02.2023 05:20 21,2 C 0,5 C 88 % 1023,2 hPa 0,0 l/m 2,6 km/h (1 Bft) SO 135 0 min -1,3 C 0,5 C 6,4 km/h (2 Bft)
04.02.2023 05:10 21,2 C 0,5 C 88 % 1022,5 hPa 0,0 l/m 3,5 km/h (1 Bft) W-SW 247 0 min -1,3 C 0,5 C 2,7 km/h (1 Bft)
04.02.2023 05:00 21,2 C 0,5 C 88 % 1022,5 hPa 0,0 l/m 3,2 km/h (1 Bft) W-NW 292 0 min -1,3 C 0,5 C 4,3 km/h (1 Bft)
04.02.2023 04:50 21,2 C 0,5 C 88 % 1021,8 hPa 0,0 l/m 5,0 km/h (1 Bft) W-NW 292 0 min -1,3 C 0,5 C 7,7 km/h (2 Bft)
04.02.2023 04:40 21,2 C 0,6 C 88 % 1021,8 hPa 0,0 l/m 8,9 km/h (2 Bft) W 270 0 min -1,2 C -1,8 C 14,0 km/h (3 Bft)
04.02.2023 04:30 21,3 C 0,6 C 88 % 1021,1 hPa 0,0 l/m 7,2 km/h (2 Bft) NW 315 0 min -1,2 C -0,2 C 18,2 km/h (3 Bft)
04.02.2023 04:20 21,2 C 0,7 C 88 % 1021,1 hPa 0,0 l/m 9,7 km/h (2 Bft) N-NO 22 0 min -1,1 C -2,4 C 6,6 km/h (2 Bft)
04.02.2023 04:10 21,4 C 0,7 C 89 % 1020,4 hPa 0,0 l/m 8,7 km/h (2 Bft) N 360 0 min -0,9 C -1,6 C 17,1 km/h (3 Bft)
04.02.2023 04:00 21,4 C 0,7 C 89 % 1020,4 hPa 0,0 l/m 9,8 km/h (2 Bft) NW 315 0 min -0,9 C -2,5 C 15,1 km/h (3 Bft)
04.02.2023 03:50 21,4 C 0,8 C 89 % 1019,6 hPa 0,0 l/m 11,7 km/h (2 Bft) W-SW 247 0 min -0,8 C -3,9 C 11,1 km/h (2 Bft)
04.02.2023 03:40 21,4 C 0,9 C 89 % 1019,6 hPa 0,0 l/m 12,1 km/h (2 Bft) W-NW 292 0 min -0,7 C -4,0 C 19,5 km/h (3 Bft)
04.02.2023 03:30 21,5 C 1,0 C 89 % 1018,6 hPa 0,0 l/m 13,8 km/h (3 Bft) W-SW 247 0 min -0,6 C -5,0 C 14,0 km/h (3 Bft)
04.02.2023 03:20 21,5 C 1,1 C 89 % 1018,6 hPa 0,0 l/m 12,9 km/h (3 Bft) W 270 0 min -0,5 C -4,3 C 21,9 km/h (4 Bft)
04.02.2023 03:10 21,5 C 1,4 C 89 % 1017,8 hPa 0,0 l/m 10,8 km/h (2 Bft) W 270 0 min -0,2 C -2,5 C 13,5 km/h (3 Bft)
04.02.2023 03:00 21,6 C 1,5 C 89 % 1017,8 hPa 0,0 l/m 14,5 km/h (3 Bft) N-NW 337 0 min -0,1 C -4,9 C 18,2 km/h (3 Bft)
04.02.2023 02:50 21,6 C 1,4 C 89 % 1016,8 hPa 0,0 l/m 12,7 km/h (3 Bft) W 270 0 min -0,2 C -3,9 C 21,7 km/h (4 Bft)
04.02.2023 02:40 21,6 C 1,4 C 89 % 1016,8 hPa 0,0 l/m 13,4 km/h (3 Bft) W 270 0 min -0,2 C -4,3 C 13,5 km/h (3 Bft)
04.02.2023 02:30 21,7 C 1,4 C 89 % 1016,5 hPa 0,0 l/m 13,2 km/h (3 Bft) W-SW 247 0 min -0,2 C -4,2 C 8,7 km/h (2 Bft)
04.02.2023 02:20 21,7 C 1,5 C 89 % 1016,5 hPa 0,0 l/m 16,7 km/h (3 Bft) NW 315 0 min -0,1 C -6,1 C 21,4 km/h (4 Bft)
04.02.2023 02:10 21,8 C 1,6 C 89 % 1015,7 hPa 0,0 l/m 16,4 km/h (3 Bft) W-NW 292 0 min -0,0 C -5,8 C 25,3 km/h (4 Bft)
04.02.2023 02:00 21,8 C 2,1 C 88 % 1015,7 hPa 0,0 l/m 16,9 km/h (3 Bft) W-NW 292 0 min 0,3 C -5,5 C 17,7 km/h (3 Bft)
04.02.2023 01:50 21,8 C 2,2 C 88 % 1015,3 hPa 0,0 l/m 15,1 km/h (3 Bft) NW 315 0 min 0,4 C -4,4 C 19,3 km/h (3 Bft)
04.02.2023 01:40 21,8 C 2,3 C 88 % 1015,3 hPa 0,0 l/m 15,3 km/h (3 Bft) W 270 0 min 0,5 C -4,4 C 31,1 km/h (5 Bft)
04.02.2023 01:30 21,8 C 2,4 C 88 % 1014,8 hPa 0,0 l/m 13,2 km/h (3 Bft) W 270 0 min 0,6 C -3,0 C 14,3 km/h (3 Bft)
04.02.2023 01:20 21,9 C 2,6 C 88 % 1014,8 hPa 0,0 l/m 13,4 km/h (3 Bft) W-NW 292 0 min 0,8 C -2,9 C 35,2 km/h (5 Bft)
04.02.2023 01:10 21,9 C 2,8 C 89 % 1013,6 hPa 0,0 l/m 16,4 km/h (3 Bft) W 270 0 min 1,2 C -4,3 C 15,4 km/h (3 Bft)
04.02.2023 01:00 22,0 C 3,4 C 89 % 1013,6 hPa 0,0 l/m 17,4 km/h (3 Bft) W-SW 247 0 min 1,8 C -4,1 C 34,1 km/h (5 Bft)
04.02.2023 00:50 22,0 C 3,9 C 89 % 1013,0 hPa 0,0 l/m 13,8 km/h (3 Bft) NW 315 0 min 2,3 C -1,6 C 32,0 km/h (5 Bft)
04.02.2023 00:40 22,0 C 3,9 C 89 % 1013,0 hPa 0,0 l/m 12,6 km/h (3 Bft) S 180 0 min 2,3 C -0,9 C 16,6 km/h (3 Bft)
04.02.2023 00:30 22,0 C 3,8 C 89 % 1012,8 hPa 0,7 l/m 12,6 km/h (3 Bft) W-NW 292 0 min 2,2 C -1,0 C 31,1 km/h (5 Bft)
04.02.2023 00:20 22,1 C 3,8 C 89 % 1012,8 hPa 0,0 l/m 12,9 km/h (3 Bft) N-NW 337 0 min 2,2 C -1,2 C 14,8 km/h (3 Bft)
04.02.2023 00:10 22,1 C 3,7 C 89 % 1012,8 hPa 0,0 l/m 12,4 km/h (3 Bft) W-NW 292 0 min 2,1 C -1,0 C 14,2 km/h (3 Bft)
04.02.2023 00:00 22,1 C 3,6 C 88 % 1012,8 hPa 0,0 l/m 12,7 km/h (3 Bft) W 270 0 min 1,8 C -1,3 C 18,7 km/h (3 Bft)
03.02.2023 23:50 22,2 C 3,6 C 88 % 1012,4 hPa 0,0 l/m 12,2 km/h (2 Bft) NW 315 0 min 1,8 C -1,0 C 26,1 km/h (4 Bft)
03.02.2023 23:40 22,2 C 3,6 C 88 % 1012,4 hPa 0,0 l/m 13,0 km/h (3 Bft) W 270 0 min 1,8 C -1,5 C 16,9 km/h (3 Bft)
03.02.2023 23:30 22,2 C 3,5 C 88 % 1012,5 hPa 0,0 l/m 12,7 km/h (3 Bft) W 270 0 min 1,7 C -1,4 C 18,8 km/h (3 Bft)
03.02.2023 23:20 22,2 C 3,5 C 88 % 1012,5 hPa 0,7 l/m 13,4 km/h (3 Bft) SW 225 0 min 1,7 C -1,8 C 14,2 km/h (3 Bft)
03.02.2023 23:10 22,3 C 3,5 C 88 % 1012,6 hPa 0,0 l/m 12,4 km/h (3 Bft) SW 225 0 min 1,7 C -1,2 C 10,5 km/h (2 Bft)
03.02.2023 23:00 22,3 C 3,6 C 88 % 1012,6 hPa 0,0 l/m 10,3 km/h (2 Bft) W 270 0 min 1,8 C 0,3 C 14,8 km/h (3 Bft)
03.02.2023 22:50 22,3 C 3,6 C 88 % 1012,6 hPa 0,0 l/m 11,3 km/h (2 Bft) W-SW 247 0 min 1,8 C -0,4 C 10,9 km/h (2 Bft)
03.02.2023 22:40 22,2 C 3,6 C 88 % 1012,6 hPa 0,0 l/m 11,3 km/h (2 Bft) SW 225 0 min 1,8 C -0,4 C 11,1 km/h (2 Bft)
03.02.2023 22:30 22,4 C 3,6 C 88 % 1012,7 hPa 0,7 l/m 10,9 km/h (2 Bft) NW 315 0 min 1,8 C -0,1 C 22,2 km/h (4 Bft)
03.02.2023 22:20 22,4 C 3,6 C 88 % 1012,7 hPa 0,0 l/m 11,3 km/h (2 Bft) W 270 0 min 1,8 C -0,4 C 12,1 km/h (2 Bft)
03.02.2023 22:10 22,4 C 3,7 C 88 % 1012,6 hPa 0,0 l/m 10,6 km/h (2 Bft) W-NW 292 0 min 1,9 C 0,2 C 13,0 km/h (3 Bft)
03.02.2023 22:00 22,4 C 3,8 C 88 % 1012,6 hPa 0,0 l/m 13,2 km/h (3 Bft) W 270 0 min 2,0 C -1,4 C 13,7 km/h (3 Bft)
03.02.2023 21:50 22,4 C 3,9 C 88 % 1012,6 hPa 0,7 l/m 10,9 km/h (2 Bft) W 270 0 min 2,1 C 0,2 C 13,7 km/h (3 Bft)
03.02.2023 21:40 22,2 C 4,0 C 88 % 1012,6 hPa 0,0 l/m 11,9 km/h (2 Bft) W-NW 292 0 min 2,2 C -0,3 C 25,3 km/h (4 Bft)
03.02.2023 21:30 22,3 C 4,1 C 88 % 1012,1 hPa 0,0 l/m 11,4 km/h (2 Bft) W 270 0 min 2,3 C 0,1 C 19,8 km/h (3 Bft)
03.02.2023 21:20 22,2 C 4,1 C 88 % 1012,1 hPa 0,0 l/m 12,2 km/h (2 Bft) SW 225 0 min 2,3 C -0,4 C 10,8 km/h (2 Bft)
03.02.2023 21:10 22,2 C 4,2 C 88 % 1012,0 hPa 0,0 l/m 11,1 km/h (2 Bft) W-NW 292 0 min 2,4 C 0,4 C 10,6 km/h (2 Bft)
03.02.2023 21:00 22,2 C 4,3 C 88 % 1012,0 hPa 0,0 l/m 12,2 km/h (2 Bft) W-NW 292 0 min 2,5 C -0,2 C 14,2 km/h (3 Bft)
03.02.2023 20:50 22,1 C 4,3 C 88 % 1011,8 hPa 0,0 l/m 11,1 km/h (2 Bft) W-SW 247 0 min 2,5 C 0,5 C 24,6 km/h (4 Bft)
03.02.2023 20:40 22,1 C 4,3 C 88 % 1011,8 hPa 0,0 l/m 10,9 km/h (2 Bft) W-SW 247 0 min 2,5 C 0,7 C 11,3 km/h (2 Bft)
03.02.2023 20:30 22,1 C 4,2 C 88 % 1012,1 hPa 0,0 l/m 12,6 km/h (3 Bft) W 270 0 min 2,4 C -0,5 C 12,7 km/h (3 Bft)
03.02.2023 20:20 22,1 C 4,0 C 87 % 1012,1 hPa 0,0 l/m 12,1 km/h (2 Bft) W 270 0 min 2,0 C -0,5 C 15,1 km/h (3 Bft)
03.02.2023 20:10 22,1 C 3,9 C 88 % 1011,8 hPa 0,0 l/m 11,9 km/h (2 Bft) W 270 0 min 2,1 C -0,4 C 20,9 km/h (4 Bft)
03.02.2023 20:00 22,1 C 4,0 C 87 % 1011,8 hPa 0,0 l/m 12,1 km/h (2 Bft) W-SW 247 0 min 2,0 C -0,5 C 12,6 km/h (3 Bft)
03.02.2023 19:50 22,1 C 4,1 C 87 % 1012,1 hPa 0,0 l/m 10,0 km/h (2 Bft) NW 315 0 min 2,1 C 1,1 C 14,2 km/h (3 Bft)
03.02.2023 19:40 22,1 C 4,3 C 87 % 1012,1 hPa 0,0 l/m 11,1 km/h (2 Bft) W 270 0 min 2,3 C 0,5 C 7,7 km/h (2 Bft)
03.02.2023 19:30 22,1 C 4,4 C 87 % 1011,9 hPa 0,0 l/m 10,0 km/h (2 Bft) W-SW 247 0 min 2,4 C 1,4 C 10,3 km/h (2 Bft)
03.02.2023 19:20 22,2 C 4,3 C 87 % 1011,9 hPa 0,0 l/m 10,5 km/h (2 Bft) NW 315 0 min 2,3 C 0,9 C 6,4 km/h (2 Bft)
03.02.2023 19:10 22,2 C 4,4 C 87 % 1011,8 hPa 0,0 l/m 10,3 km/h (2 Bft) W-SW 247 0 min 2,4 C 1,2 C 12,4 km/h (3 Bft)
03.02.2023 19:00 22,2 C 4,5 C 87 % 1011,8 hPa 0,0 l/m 11,9 km/h (2 Bft) W-NW 292 0 min 2,5 C 0,2 C 20,8 km/h (4 Bft)
03.02.2023 18:50 22,1 C 4,6 C 87 % 1011,4 hPa 0,0 l/m 12,2 km/h (2 Bft) W 270 0 min 2,6 C 0,2 C 20,4 km/h (4 Bft)
03.02.2023 18:40 22,1 C 4,6 C 87 % 1011,4 hPa 0,0 l/m 9,8 km/h (2 Bft) W-SW 247 0 min 2,6 C 1,8 C 21,1 km/h (4 Bft)
03.02.2023 18:30 22,1 C 4,5 C 87 % 1011,4 hPa 0,0 l/m 9,5 km/h (2 Bft) NW 315 0 min 2,5 C 1,9 C 7,2 km/h (2 Bft)
03.02.2023 18:20 22,1 C 4,4 C 87 % 1011,4 hPa 0,0 l/m 8,7 km/h (2 Bft) NW 315 0 min 2,4 C 2,4 C 12,6 km/h (3 Bft)
03.02.2023 18:10 22,2 C 4,3 C 87 % 1011,5 hPa 0,0 l/m 10,0 km/h (2 Bft) W-SW 247 0 min 2,3 C 1,3 C 4,2 km/h (1 Bft)
03.02.2023 18:00 22,2 C 4,3 C 87 % 1011,5 hPa 0,0 l/m 7,9 km/h (2 Bft) W 270 0 min 2,3 C 3,0 C 13,5 km/h (3 Bft)
03.02.2023 17:50 22,2 C 4,3 C 87 % 1011,2 hPa 0,0 l/m 9,2 km/h (2 Bft) W-NW 292 0 min 2,3 C 1,9 C 12,1 km/h (2 Bft)
03.02.2023 17:40 22,2 C 4,3 C 87 % 1011,2 hPa 0,0 l/m 10,8 km/h (2 Bft) W-SW 247 0 min 2,3 C 0,7 C 11,6 km/h (2 Bft)
03.02.2023 17:30 22,2 C 4,3 C 86 % 1011,0 hPa 0,0 l/m 11,1 km/h (2 Bft) W 270 0 min 2,2 C 0,5 C 7,6 km/h (2 Bft)
03.02.2023 17:20 22,2 C 4,4 C 86 % 1011,0 hPa 0,0 l/m 14,2 km/h (3 Bft) W-SW 247 0 min 2,3 C -1,2 C 13,4 km/h (3 Bft)
03.02.2023 17:10 22,3 C 4,2 C 86 % 1011,2 hPa 0,0 l/m 12,2 km/h (2 Bft) W-NW 292 0 min 2,1 C -0,3 C 18,3 km/h (3 Bft)
03.02.2023 17:00 22,2 C 4,1 C 86 % 1011,2 hPa 0,0 l/m 11,9 km/h (2 Bft) W 270 0 min 2,0 C -0,2 C 15,0 km/h (3 Bft)
_ Min-Zeit 04:20 08:20 15:30 17:20 - 05:40 - - - 16:30 02:20 10:40
Minimum _ 21,2 C -1,3 C 53 % 1011,0 hPa - 2,1 km/h (1 Bft) - - - -7,1 C -6,1 C 2,1 km/h (1 Bft)
_ Max-Zeit 16:00 18:40 00:10 16:00 21:50 01:00 - - 09:50 18:40 18:00 01:20
Maximum _ 23,1 C 4,6 C 89 % 1033,6 hPa 0,7 l/m 17,4 km/h
W-SW (3 Bft)
- - 10 min 2,6 C 3,0 C 35,2 km/h
W-NW (5 Bft)
Durchschnitt _ 22,1 C 2,2 C 83 % 1021,0 hPa #2,7 l/m 9,0 km/h (2 Bft) W - #30 min. -0,5 C -0,3 C 12,0 km/h (2 Bft)

©39322 Markus Bahr